DW3212 Weather Reports


Display with metric or nautical units.
time (UTC)temp
F
wind
direction
speed
MPH
gust
MPH
rain 1hr
in
rain 24hr
in
rain mn
in
humidity
%
barometer
mb
20260505004557 55 0.0 0.0 0.00 0.00 0.00 51 1008.1
20260505003059 56 0.0 0.0 0.00 0.00 0.00 49 1008.0
20260505001601 57 0.0 0.0 0.00 0.00 0.00 48 1007.8
20260504234559 58 0.0 0.0 0.00 0.00 0.00 48 1007.4
20260504233106 59 0.0 0.0 0.00 0.00 0.00 47 1007.3
20260504231602 60 0.0 0.0 0.00 0.00 0.00 44 1006.9
20260504230109 60 0.0 0.0 0.00 0.00 0.00 43 1006.8
20260504224600 60 0.0 0.0 0.00 0.00 0.00 43 1006.8
20260504223117 60 0.0 0.0 0.00 0.00 0.00 42 1006.7
20260504221558 61 0.0 0.0 0.00 0.00 0.00 43 1006.6
20260504214558 62 0.0 0.0 0.00 0.00 0.00 42 1006.6
20260504213101 61 0.0 0.0 0.00 0.00 0.00 43 1006.7
20260504211651 62 0.0 0.0 0.00 0.00 0.00 42 1006.6
20260504210056 63 0.0 0.0 0.00 0.00 0.00 40 1006.7
20260504204604 62 0.0 0.0 0.00 0.00 0.00 41 1006.6
20260504203057 62 0.0 0.0 0.00 0.00 0.00 42 1006.9
20260504201611 62 0.0 0.0 0.00 0.00 0.00 41 1006.7
20260504200058 62 0.0 0.0 0.00 0.00 0.00 40 1006.7
20260504194559 62 0.0 0.0 0.00 0.00 0.00 40 1006.6
20260504193109 62 0.0 0.0 0.00 0.00 0.00 42 1006.8
20260504191610 62 0.0 0.0 0.00 0.00 0.00 42 1006.7
20260504190109 62 0.0 0.0 0.00 0.00 0.00 42 1006.8
20260504184557 60 0.0 0.0 0.00 0.00 0.00 41 1006.9
20260504183057 61 0.0 0.0 0.00 0.00 0.00 41 1006.8
20260504181603 61 0.0 0.0 0.00 0.00 0.00 41 1006.7
20260504180059 61 0.0 0.0 0.00 0.00 0.00 44 1007.1
20260504174556 61 0.0 0.0 0.00 0.00 0.00 44 1007.1
20260504173100 60 0.0 0.0 0.00 0.00 0.00 43 1007.2
20260504171601 59 0.0 0.0 0.00 0.00 0.00 43 1007.2
20260504120103 49 0.0 0.0 0.00 0.00 0.00 53 1008.6
20260504100104 42 0.0 0.0 0.00 0.00 0.00 65 1008.2
20260504081605 41 0.0 0.0 0.00 0.00 0.00 75 1008.4
20260504044557 42 0.0 0.0 0.00 0.00 0.00 65 1008.7
20260504043059 42 0.0 0.0 0.00 0.00 0.00 63 1008.7
20260504041555 42 0.0 0.0 0.00 0.00 0.00 60 1008.6
20260504040131 42 0.0 0.0 0.00 0.00 0.00 59 1008.5
20260504034601 42 0.0 0.0 0.00 0.00 0.00 58 1008.5
20260504033056 41 0.0 0.0 0.00 0.00 0.00 56 1008.4
20260504031608 41 0.0 0.0 0.00 0.00 0.00 54 1008.2
20260504030056 41 0.0 0.0 0.00 0.00 0.00 52 1008.2
20260504024603 41 0.0 0.0 0.00 0.00 0.00 50 1008.2
20260504023056 41 0.0 0.0 0.00 0.00 0.00 49 1008.4
20260504021554 41 0.0 0.0 0.00 0.00 0.00 48 1008.6
20260504020109 41 0.0 0.0 0.00 0.00 0.00 48 1008.4
20260504014554 41 0.0 0.0 0.00 0.00 0.00 48 1008.2
20260504013056 41 0.0 0.0 0.00 0.00 0.00 47 1008.1
20260504011556 41 0.0 0.0 0.00 0.00 0.00 48 1007.9